• En España
  • Lista de países
  • Para 7 días
  • Temperatura del agua
  • Mapa Satelital
  • El tiempo en el mapa
  • Informadores
  • user-avatar
    Iniciar sesión

    Tiempo cada hora Yunusovo

    Hoy, 22 Junio, Viernes

    Tiempo Temperatura Precipitaciones Viento Presión Humedad
    00:00 +13°C° 0 mm 5 mps 747 mmHg 68%
    01:00 +13°C° 0 mm 6 mps 747 mmHg 68%
    02:00 +13°C° 0 mm 6 mps 747 mmHg 68%
    03:00 +13°C° 0 mm 6 mps 748 mmHg 67%
    04:00 +13°C° 0 mm 6 mps 748 mmHg 69%
    05:00 +13°C° 0 mm 6 mps 748 mmHg 71%
    06:00 +14°C° 0 mm 6 mps 749 mmHg 73%
    07:00 +15°C° 0 mm 6 mps 749 mmHg 69%
    08:00 +17°C° 0 mm 7 mps 749 mmHg 66%
    09:00 +18°C° 0 mm 7 mps 750 mmHg 62%
    10:00 +20°C° 0 mm 7 mps 750 mmHg 59%
    11:00 +21°C° 0 mm 7 mps 750 mmHg 57%
    12:00 +22°C° 0 mm 7 mps 751 mmHg 54%
    13:00 +22°C° 0 mm 6 mps 751 mmHg 54%
    14:00 +22°C° 0 mm 6 mps 751 mmHg 54%
    15:00 +23°C° 0 mm 5 mps 751 mmHg 54%
    16:00 +22°C° 0 mm 5 mps 751 mmHg 58%
    17:00 +22°C° 0 mm 4 mps 751 mmHg 62%
    18:00 +22°C° 0 mm 3 mps 751 mmHg 67%
    19:00 +20°C° 0 mm 2 mps 751 mmHg 70%
    20:00 +18°C° 0 mm 2 mps 751 mmHg 73%
    21:00 +16°C° 0 mm 2 mps 752 mmHg 76%
    22:00 +16°C° 0 mm 2 mps 752 mmHg 78%
    23:00 +15°C° 0 mm 2 mps 752 mmHg 81%

    Mañana, 23 Junio, Sábado

    Tiempo Temperatura Precipitaciones Viento Presión Humedad
    00:00 +15°C° 0 mm 2 mps 752 mmHg 83%
    01:00 +15°C° 0 mm 2 mps 752 mmHg 85%
    02:00 +15°C° 0 mm 2 mps 752 mmHg 87%
    03:00 +15°C° 0 mm 2 mps 752 mmHg 89%
    04:00 +16°C° 0 mm 2 mps 752 mmHg 87%
    05:00 +17°C° 0 mm 2 mps 752 mmHg 86%
    06:00 +19°C° 0 mm 2 mps 752 mmHg 85%
    07:00 +20°C° 0 mm 2 mps 752 mmHg 80%
    08:00 +23°C° 0 mm 2 mps 753 mmHg 76%
    09:00 +25°C° 0 mm 2 mps 753 mmHg 71%
    10:00 +26°C° 0,1 mm 3 mps 752 mmHg 69%
    11:00 +26°C° 0,1 mm 3 mps 752 mmHg 67%
    12:00 +27°C° 0,1 mm 3 mps 752 mmHg 65%
    13:00 +27°C° 0,2 mm 3 mps 752 mmHg 64%
    14:00 +28°C° 0,2 mm 3 mps 752 mmHg 64%
    15:00 +28°C° 0,2 mm 3 mps 752 mmHg 63%
    16:00 +28°C° 0,4 mm 3 mps 752 mmHg 68%
    17:00 +27°C° 0,4 mm 2 mps 752 mmHg 72%
    18:00 +27°C° 0,4 mm 1 mps 752 mmHg 76%
    19:00 +26°C° 0,1 mm 1 mps 752 mmHg 80%
    20:00 +24°C° 0,1 mm 1 mps 752 mmHg 83%
    21:00 +23°C° 0,1 mm 1 mps 752 mmHg 87%
    22:00 +22°C° 0 mm 1 mps 752 mmHg 88%
    23:00 +22°C° 0 mm 1 mps 752 mmHg 89%

    Pasado mañana, 24 Junio, Domingo

    Tiempo Temperatura Precipitaciones Viento Presión Humedad
    00:00 +21°C° 0 mm 1 mps 752 mmHg 90%
    01:00 +21°C° 0 mm 1 mps 753 mmHg 91%
    02:00 +21°C° 0 mm 1 mps 753 mmHg 91%
    03:00 +20°C° 0 mm 1 mps 753 mmHg 92%
    04:00 +22°C° 0 mm 1 mps 753 mmHg 90%
    05:00 +23°C° 0 mm 1 mps 753 mmHg 87%
    06:00 +24°C° 0 mm 1 mps 753 mmHg 85%
    07:00 +25°C° 0 mm 1 mps 754 mmHg 81%
    08:00 +26°C° 0 mm 1 mps 754 mmHg 76%
    09:00 +28°C° 0 mm 1 mps 754 mmHg 72%
    10:00 +28°C° 0,1 mm 1 mps 754 mmHg 68%
    11:00 +29°C° 0,1 mm 1 mps 753 mmHg 65%
    12:00 +30°C° 0,1 mm 1 mps 753 mmHg 62%
    13:00 +30°C° 0,8 mm 1 mps 753 mmHg 61%
    14:00 +30°C° 0,8 mm 1 mps 753 mmHg 61%
    15:00 +30°C° 0,8 mm 1 mps 753 mmHg 61%
    16:00 +30°C° 1 mm 1 mps 753 mmHg 66%
    17:00 +29°C° 1 mm 1 mps 753 mmHg 71%
    18:00 +28°C° 1 mm 1 mps 753 mmHg 76%
    19:00 +27°C° 0,1 mm 1 mps 754 mmHg 78%
    20:00 +26°C° 0,1 mm 1 mps 754 mmHg 81%
    21:00 +24°C° 0,1 mm 1 mps 754 mmHg 83%
    22:00 +24°C° 0 mm 1 mps 754 mmHg 84%
    23:00 +23°C° 0 mm 1 mps 754 mmHg 86%

    25 Junio, Lunes

    Tiempo Temperatura Precipitaciones Viento Presión Humedad
    00:00 +23°C° 0 mm 1 mps 754 mmHg 87%
    01:00 +22°C° 0 mm 1 mps 754 mmHg 87%
    02:00 +22°C° 0 mm 1 mps 755 mmHg 87%
    03:00 +22°C° 0 mm 1 mps 755 mmHg 88%
    04:00 +23°C° 0 mm 1 mps 755 mmHg 86%
    05:00 +24°C° 0 mm 1 mps 755 mmHg 84%
    06:00 +25°C° 0 mm 1 mps 755 mmHg 82%
    07:00 +26°C° 0,1 mm 1 mps 755 mmHg 77%
    08:00 +27°C° 0,1 mm 1 mps 755 mmHg 72%
    09:00 +29°C° 0,1 mm 1 mps 755 mmHg 68%
    10:00 +29°C° 0,2 mm 1 mps 755 mmHg 64%
    11:00 +30°C° 0,2 mm 1 mps 755 mmHg 60%
    12:00 +31°C° 0,2 mm 1 mps 755 mmHg 57%
    13:00 +31°C° 0 mm 2 mps 755 mmHg 58%
    14:00 +31°C° 0 mm 2 mps 755 mmHg 59%
    15:00 +31°C° 0 mm 2 mps 755 mmHg 59%
    16:00 +30°C° 0,4 mm 2 mps 755 mmHg 63%
    17:00 +30°C° 0,4 mm 2 mps 755 mmHg 67%
    18:00 +29°C° 0,4 mm 1 mps 755 mmHg 71%
    19:00 +28°C° 0,3 mm 1 mps 755 mmHg 74%
    20:00 +26°C° 0,3 mm 1 mps 755 mmHg 77%
    21:00 +24°C° 0,3 mm 1 mps 755 mmHg 79%
    22:00 +24°C° 0 mm 1 mps 755 mmHg 80%
    23:00 +23°C° 0 mm 1 mps 755 mmHg 81%

    26 Junio, Martes

    Tiempo Temperatura Precipitaciones Viento Presión Humedad
    00:00 +23°C° 0 mm 1 mps 755 mmHg 82%
    01:00 +21°C° 0,1 mm 2 mps 755 mmHg 84%
    02:00 +21°C° 0,1 mm 2 mps 755 mmHg 86%
    03:00 +20°C° 0,1 mm 2 mps 755 mmHg 88%
    04:00 +21°C° 0,3 mm 2 mps 755 mmHg 87%
    05:00 +23°C° 0,3 mm 2 mps 756 mmHg 86%
    06:00 +23°C° 0,3 mm 2 mps 756 mmHg 84%
    07:00 +24°C° 0 mm 3 mps 756 mmHg 81%
    08:00 +25°C° 0 mm 3 mps 755 mmHg 78%
    09:00 +27°C° 0 mm 3 mps 755 mmHg 74%
    10:00 +27°C° 0,2 mm 3 mps 755 mmHg 71%
    11:00 +28°C° 0,2 mm 3 mps 755 mmHg 67%
    12:00 +29°C° 0,2 mm 3 mps 755 mmHg 63%
    13:00 +29°C° 0 mm 3 mps 755 mmHg 62%
    14:00 +29°C° 0 mm 3 mps 755 mmHg 60%
    15:00 +30°C° 0 mm 3 mps 755 mmHg 58%
    16:00 +29°C° 0 mm 3 mps 755 mmHg 62%
    17:00 +29°C° 0 mm 2 mps 756 mmHg 66%
    18:00 +28°C° 0 mm 2 mps 756 mmHg 70%
    19:00 +26°C° 0 mm 2 mps 756 mmHg 75%
    20:00 +25°C° 0 mm 2 mps 756 mmHg 80%
    21:00 +23°C° 0 mm 2 mps 756 mmHg 85%
    22:00 +21°C° 0 mm 2 mps 756 mmHg 87%
    23:00 +21°C° 0 mm 2 mps 756 mmHg 89%

    27 Junio, Miércoles

    Tiempo Temperatura Precipitaciones Viento Presión Humedad
    00:00 +20°C° 0 mm 2 mps 756 mmHg 92%
    01:00 +20°C° 0 mm 2 mps 756 mmHg 93%
    02:00 +19°C° 0 mm 2 mps 756 mmHg 93%
    03:00 +19°C° 0 mm 3 mps 756 mmHg 94%
    04:00 +20°C° 0 mm 3 mps 756 mmHg 92%
    05:00 +21°C° 0 mm 3 mps 756 mmHg 90%
    06:00 +22°C° 0 mm 3 mps 756 mmHg 88%
    07:00 +23°C° 0,1 mm 4 mps 756 mmHg 84%
    08:00 +25°C° 0,1 mm 4 mps 756 mmHg 80%
    09:00 +27°C° 0,1 mm 4 mps 756 mmHg 76%
    10:00 +27°C° 0,5 mm 4 mps 756 mmHg 72%
    11:00 +28°C° 0,5 mm 4 mps 756 mmHg 69%
    12:00 +29°C° 0,5 mm 3 mps 756 mmHg 66%
    13:00 +29°C° 0,8 mm 4 mps 756 mmHg 65%
    14:00 +29°C° 0,8 mm 4 mps 755 mmHg 65%
    15:00 +29°C° 0,8 mm 4 mps 755 mmHg 64%
    16:00 +29°C° 0,1 mm 3 mps 755 mmHg 68%
    17:00 +28°C° 0,1 mm 3 mps 755 mmHg 72%
    18:00 +28°C° 0,1 mm 3 mps 755 mmHg 76%
    19:00 +26°C° 0 mm 3 mps 755 mmHg 80%
    20:00 +25°C° 0 mm 3 mps 755 mmHg 83%
    21:00 +22°C° 0 mm 3 mps 755 mmHg 87%
    22:00 +22°C° 0 mm 3 mps 755 mmHg 89%
    23:00 +21°C° 0 mm 3 mps 755 mmHg 90%
    Mostrar más